Time,TemperatureF,DewpointF,PressureIn,WindDirection,WindDirectionDegrees,WindSpeedMPH,WindSpeedGustMPH,Humidity,HourlyPrecipIn,Conditions,Clouds,dailyrainin,SolarRadiationWatts/m^2,SoftwareType,DateUTC
2013-06-19 00:02:00,82.0,74.0,-100.00,SW,222,4.0,9.0,78,0.00,,,0.00,0.000000,,2013-06-19 04:02:00,
2013-06-19 00:12:00,82.0,74.0,-100.00,SW,222,4.0,9.0,78,0.00,,,0.00,0.000000,,2013-06-19 04:12:00,
2013-06-19 00:43:00,82.0,76.0,-100.00,SW,228,3.0,8.0,81,0.00,,,0.00,0.000000,,2013-06-19 04:43:00,
2013-06-19 00:53:00,82.0,76.0,-100.00,SW,228,3.0,8.0,81,0.00,,,0.00,0.000000,,2013-06-19 04:53:00,
2013-06-19 01:01:00,82.0,76.0,-100.00,SW,228,3.0,8.0,81,0.00,,,0.00,0.000000,,2013-06-19 05:01:00,
2013-06-19 01:11:00,82.0,76.0,-100.00,SW,228,3.0,8.0,81,0.00,,,0.00,0.000000,,2013-06-19 05:11:00,
2013-06-19 01:43:00,82.0,76.0,-100.00,South,191,3.0,8.0,82,0.00,,,0.00,0.000000,,2013-06-19 05:43:00,
2013-06-19 01:52:00,82.0,76.0,-100.00,South,191,3.0,8.0,82,0.00,,,0.00,0.000000,,2013-06-19 05:52:00,
2013-06-19 02:02:00,82.0,76.0,-100.00,South,191,3.0,8.0,82,0.00,,,0.00,0.000000,,2013-06-19 06:02:00,
2013-06-19 02:11:00,82.0,76.0,-100.00,South,191,3.0,8.0,82,0.00,,,0.00,0.000000,,2013-06-19 06:11:00,
2013-06-19 02:43:00,81.0,75.0,-100.00,ESE,116,5.0,10.0,82,0.00,,,0.00,0.000000,,2013-06-19 06:43:00,
2013-06-19 02:52:00,81.0,75.0,-100.00,ESE,116,5.0,10.0,82,0.00,,,0.00,0.000000,,2013-06-19 06:52:00,
2013-06-19 03:01:00,81.0,75.0,-100.00,ESE,116,5.0,10.0,82,0.00,,,0.00,0.000000,,2013-06-19 07:01:00,
2013-06-19 03:11:00,81.0,75.0,-100.00,ESE,116,5.0,10.0,82,0.00,,,0.00,0.000000,,2013-06-19 07:11:00,
2013-06-19 03:43:00,80.0,74.0,-100.00,East,83,4.0,9.0,82,0.00,,,0.00,0.000000,,2013-06-19 07:43:00,
2013-06-19 03:53:00,80.0,74.0,-100.00,East,83,4.0,9.0,82,0.00,,,0.00,0.000000,,2013-06-19 07:53:00,
2013-06-19 04:02:00,80.0,74.0,-100.00,East,83,4.0,9.0,82,0.00,,,0.00,0.000000,,2013-06-19 08:02:00,
2013-06-19 04:11:00,80.0,74.0,-100.00,East,83,4.0,9.0,82,0.00,,,0.00,0.000000,,2013-06-19 08:11:00,
2013-06-19 04:43:00,78.0,73.0,-100.00,SE,144,2.0,9.0,84,0.00,,,0.00,0.000000,,2013-06-19 08:43:00,
2013-06-19 04:54:00,78.0,73.0,-100.00,SE,144,2.0,9.0,84,0.00,,,0.00,0.000000,,2013-06-19 08:54:00,
2013-06-19 05:02:00,78.0,73.0,-100.00,SE,144,2.0,9.0,84,0.00,,,0.00,0.000000,,2013-06-19 09:02:00,
2013-06-19 05:12:00,78.0,73.0,-100.00,SE,144,2.0,9.0,84,0.00,,,0.00,0.000000,,2013-06-19 09:12:00,
2013-06-19 05:44:00,-999.0,-99.9,-100.00,North,-999,3.0,-999.0,-999,0.00,,,0.00,,,2013-06-19 09:44:00,
2013-06-19 05:53:00,-999.0,-99.9,-100.00,North,-999,3.0,-999.0,-999,0.00,,,0.00,,,2013-06-19 09:53:00,
2013-06-19 06:02:00,-999.0,-99.9,-100.00,North,-999,3.0,-999.0,-999,0.00,,,0.00,,,2013-06-19 10:02:00,
2013-06-19 06:12:00,-999.0,-99.9,-100.00,North,-999,3.0,-999.0,-999,0.00,,,0.00,,,2013-06-19 10:12:00,
2013-06-19 06:53:00,77.0,74.0,-100.00,SE,129,0.0,5.0,89,0.00,,,0.00,0.000000,,2013-06-19 10:53:00,
2013-06-19 07:02:00,77.0,74.0,-100.00,SE,129,0.0,5.0,89,0.00,,,0.00,0.000000,,2013-06-19 11:02:00,
2013-06-19 07:11:00,77.0,74.0,-100.00,SE,129,0.0,5.0,89,0.00,,,0.00,0.000000,,2013-06-19 11:11:00,
2013-06-19 07:54:00,79.0,74.0,-100.00,SSE,166,3.0,7.0,85,0.00,,,0.00,16.000000,,2013-06-19 11:54:00,
2013-06-19 08:02:00,79.0,74.0,-100.00,SSE,166,3.0,7.0,85,0.00,,,0.00,16.000000,,2013-06-19 12:02:00,
2013-06-19 08:12:00,79.0,74.0,-100.00,SSE,166,3.0,7.0,85,0.00,,,0.00,16.000000,,2013-06-19 12:12:00,
2013-06-19 08:44:00,85.0,73.0,-100.00,South,169,4.0,9.0,68,0.00,,,0.00,139.000000,,2013-06-19 12:44:00,
2013-06-19 08:53:00,85.0,73.0,-100.00,South,169,4.0,9.0,68,0.00,,,0.00,139.000000,,2013-06-19 12:53:00,
2013-06-19 09:02:00,85.0,73.0,-100.00,South,169,4.0,9.0,68,0.00,,,0.00,139.000000,,2013-06-19 13:02:00,
2013-06-19 09:12:00,85.0,73.0,-100.00,South,169,4.0,9.0,68,0.00,,,0.00,139.000000,,2013-06-19 13:12:00,
2013-06-19 09:43:00,88.0,76.0,-100.00,SSE,168,2.0,7.0,68,0.00,,,0.00,288.000000,,2013-06-19 13:43:00,
2013-06-19 09:54:00,88.0,76.0,-100.00,SSE,168,2.0,7.0,68,0.00,,,0.00,288.000000,,2013-06-19 13:54:00,
2013-06-19 10:02:00,88.0,76.0,-100.00,SSE,168,2.0,7.0,68,0.00,,,0.00,288.000000,,2013-06-19 14:02:00,
2013-06-19 10:12:00,88.0,76.0,-100.00,SSE,168,2.0,7.0,68,0.00,,,0.00,288.000000,,2013-06-19 14:12:00,
2013-06-19 10:44:00,88.0,77.0,-100.00,SE,128,3.0,9.0,71,0.00,,,0.00,454.000000,,2013-06-19 14:44:00,
2013-06-19 10:53:00,88.0,77.0,-100.00,SE,128,3.0,9.0,71,0.00,,,0.00,454.000000,,2013-06-19 14:53:00,
2013-06-19 11:02:00,88.0,77.0,-100.00,SE,128,3.0,9.0,71,0.00,,,0.00,454.000000,,2013-06-19 15:02:00,
2013-06-19 11:11:00,88.0,77.0,-100.00,SE,128,3.0,9.0,71,0.00,,,0.00,454.000000,,2013-06-19 15:11:00,
2013-06-19 11:43:00,89.0,76.0,-100.00,SSE,167,4.0,10.0,66,0.00,,,0.00,579.000000,,2013-06-19 15:43:00,
2013-06-19 11:53:00,89.0,76.0,-100.00,SSE,167,4.0,10.0,66,0.00,,,0.00,579.000000,,2013-06-19 15:53:00,
2013-06-19 12:01:00,89.0,76.0,-100.00,SSE,167,4.0,10.0,66,0.00,,,0.00,579.000000,,2013-06-19 16:01:00,
2013-06-19 12:11:00,89.0,76.0,-100.00,SSE,167,4.0,10.0,66,0.00,,,0.00,579.000000,,2013-06-19 16:11:00,
2013-06-19 12:43:00,90.0,76.0,-100.00,South,183,5.0,10.0,63,0.00,,,0.00,692.000000,,2013-06-19 16:43:00,
2013-06-19 12:53:00,90.0,76.0,-100.00,South,183,5.0,10.0,63,0.00,,,0.00,692.000000,,2013-06-19 16:53:00,
2013-06-19 13:02:00,90.0,76.0,-100.00,South,183,5.0,10.0,63,0.00,,,0.00,692.000000,,2013-06-19 17:02:00,
2013-06-19 13:12:00,90.0,76.0,-100.00,South,183,5.0,10.0,63,0.00,,,0.00,692.000000,,2013-06-19 17:12:00,
2013-06-19 13:43:00,90.0,74.0,-100.00,South,185,4.0,10.0,60,0.00,,,0.00,745.000000,,2013-06-19 17:43:00,
2013-06-19 13:53:00,90.0,74.0,-100.00,South,185,4.0,10.0,60,0.00,,,0.00,745.000000,,2013-06-19 17:53:00,
2013-06-19 14:02:00,90.0,74.0,-100.00,South,185,4.0,10.0,60,0.00,,,0.00,745.000000,,2013-06-19 18:02:00,
2013-06-19 14:12:00,90.0,74.0,-100.00,South,185,4.0,10.0,60,0.00,,,0.00,745.000000,,2013-06-19 18:12:00,
2013-06-19 14:44:00,89.0,75.0,-100.00,SW,219,6.0,10.0,63,0.00,,,-99.99,757.000000,,2013-06-19 18:44:00,
2013-06-19 14:53:00,89.0,75.0,-100.00,SW,219,6.0,10.0,63,0.00,,,-99.99,757.000000,,2013-06-19 18:53:00,
2013-06-19 15:01:00,89.0,75.0,-100.00,SW,219,6.0,10.0,63,0.00,,,-99.99,757.000000,,2013-06-19 19:01:00,
2013-06-19 15:12:00,89.0,75.0,-100.00,SW,219,6.0,10.0,63,0.00,,,-99.99,757.000000,,2013-06-19 19:12:00,
2013-06-19 15:44:00,90.0,76.0,-100.00,WSW,241,5.0,11.0,63,0.00,,,0.00,731.000000,,2013-06-19 19:44:00,
2013-06-19 15:53:00,90.0,76.0,-100.00,WSW,241,5.0,11.0,63,0.00,,,0.00,731.000000,,2013-06-19 19:53:00,
2013-06-19 16:02:00,90.0,76.0,-100.00,WSW,241,5.0,11.0,63,0.00,,,0.00,731.000000,,2013-06-19 20:02:00,
2013-06-19 16:11:00,90.0,76.0,-100.00,WSW,241,5.0,11.0,63,0.00,,,0.00,731.000000,,2013-06-19 20:11:00,
2013-06-19 16:43:00,89.0,74.0,-100.00,West,279,7.0,16.0,62,0.00,,,0.00,646.000000,,2013-06-19 20:43:00,
2013-06-19 16:52:00,89.0,74.0,-100.00,West,279,7.0,16.0,62,0.00,,,0.00,646.000000,,2013-06-19 20:52:00,
2013-06-19 17:02:00,89.0,74.0,-100.00,West,279,7.0,16.0,62,0.00,,,0.00,646.000000,,2013-06-19 21:02:00,
2013-06-19 17:12:00,89.0,74.0,-100.00,West,279,7.0,16.0,62,0.00,,,0.00,646.000000,,2013-06-19 21:12:00,
2013-06-19 17:44:00,91.0,74.0,-100.00,WNW,303,2.0,11.0,57,0.00,,,0.00,444.000000,,2013-06-19 21:44:00,
2013-06-19 17:52:00,91.0,74.0,-100.00,WNW,303,2.0,11.0,57,0.00,,,0.00,444.000000,,2013-06-19 21:52:00,
2013-06-19 18:02:00,91.0,74.0,-100.00,WNW,303,2.0,11.0,57,0.00,,,0.00,444.000000,,2013-06-19 22:02:00,
2013-06-19 18:11:00,91.0,74.0,-100.00,WNW,303,2.0,11.0,57,0.00,,,0.00,444.000000,,2013-06-19 22:11:00,
2013-06-19 18:43:00,90.0,-99.9,-100.00,West,274,3.0,-999.0,-999,0.00,,,0.00,,,2013-06-19 22:43:00,
2013-06-19 18:54:00,90.0,-99.9,-100.00,West,274,3.0,-999.0,-999,0.00,,,0.00,,,2013-06-19 22:54:00,
2013-06-19 19:02:00,90.0,-99.9,-100.00,West,274,3.0,-999.0,-999,0.00,,,0.00,,,2013-06-19 23:02:00,
2013-06-19 19:12:00,90.0,-99.9,-100.00,West,274,3.0,-999.0,-999,0.00,,,0.00,,,2013-06-19 23:12:00,
2013-06-19 19:43:00,86.0,73.0,-100.00,East,92,1.0,9.0,65,0.00,,,0.00,299.000000,,2013-06-19 23:43:00,
2013-06-19 19:52:00,86.0,73.0,-100.00,East,92,1.0,9.0,65,0.00,,,0.00,299.000000,,2013-06-19 23:52:00,
2013-06-19 20:01:00,86.0,73.0,-100.00,East,92,1.0,9.0,65,0.00,,,0.00,299.000000,,2013-06-20 00:01:00,
2013-06-19 20:12:00,86.0,73.0,-100.00,East,92,1.0,9.0,65,0.00,,,0.00,299.000000,,2013-06-20 00:12:00,
2013-06-19 21:44:00,73.0,71.0,-100.00,WSW,242,0.0,3.0,93,-99.99,,,1.05,6.000000,,2013-06-20 01:44:00,
2013-06-19 21:53:00,73.0,71.0,-100.00,WSW,242,0.0,3.0,93,-99.99,,,1.05,6.000000,,2013-06-20 01:53:00,
2013-06-19 22:02:00,73.0,71.0,-100.00,WSW,242,0.0,3.0,93,-99.99,,,1.05,6.000000,,2013-06-20 02:02:00,
2013-06-19 22:11:00,73.0,71.0,-100.00,WSW,242,0.0,3.0,93,-99.99,,,1.05,6.000000,,2013-06-20 02:11:00,
2013-06-19 22:43:00,73.0,71.0,-100.00,SSE,153,0.0,0.0,94,0.00,,,1.05,0.000000,,2013-06-20 02:43:00,
2013-06-19 22:52:00,73.0,71.0,-100.00,SSE,153,0.0,0.0,94,0.00,,,1.05,0.000000,,2013-06-20 02:52:00,
2013-06-19 23:02:00,73.0,71.0,-100.00,SSE,153,0.0,0.0,94,0.00,,,1.05,0.000000,,2013-06-20 03:02:00,
2013-06-19 23:11:00,73.0,71.0,-100.00,SSE,153,0.0,0.0,94,0.00,,,1.05,0.000000,,2013-06-20 03:11:00,
2013-06-19 23:43:00,74.0,72.0,-100.00,SE,146,1.0,7.0,92,0.00,,,1.05,0.000000,,2013-06-20 03:43:00,
2013-06-19 23:54:00,74.0,72.0,-100.00,SE,146,1.0,7.0,92,0.00,,,1.05,0.000000,,2013-06-20 03:54:00,